2023/01/31 00:00:00,126.9,-2.3
2023/01/31 00:10:00,126.8,-2.5
2023/01/31 00:20:00,126.9,-2.8
2023/01/31 00:30:00,127.0,-3.0
2023/01/31 00:40:00,126.9,-3.2
2023/01/31 00:50:00,126.9,-3.6
2023/01/31 01:00:00,126.7,-3.3
2023/01/31 01:10:00,126.8,-3.7
2023/01/31 01:20:00,126.7,-3.4
2023/01/31 01:30:00,126.6,-3.1
2023/01/31 01:40:00,126.5,-3.1
2023/01/31 01:50:00,126.2,-3.0
2023/01/31 02:00:00,126.3,-2.8
2023/01/31 02:10:00,126.4,-2.9
2023/01/31 02:20:00,126.4,-2.8
2023/01/31 02:30:00,126.4,-2.8
2023/01/31 02:40:00,126.4,-2.8
2023/01/31 02:50:00,126.4,-2.8
2023/01/31 03:00:00,126.3,-2.8
2023/01/31 03:10:00,126.3,-2.9
2023/01/31 03:20:00,126.3,-2.8
2023/01/31 03:30:00,126.5,-2.8
2023/01/31 03:40:00,126.8,-2.7
2023/01/31 03:50:00,126.9,-2.7
2023/01/31 04:00:00,126.9,-2.8
2023/01/31 04:10:00,126.9,-2.8
2023/01/31 04:20:00,126.9,-2.8
2023/01/31 04:30:00,126.7,-2.9
2023/01/31 04:40:00,126.6,-3.2
2023/01/31 04:50:00,126.5,-3.2
2023/01/31 05:00:00,126.4,-3.2
2023/01/31 05:10:00,126.3,-3.4
2023/01/31 05:20:00,126.3,-2.9
2023/01/31 05:30:00,126.2,-3.2
2023/01/31 05:40:00,126.1,-3.1
2023/01/31 05:50:00,126.1,-3.0
2023/01/31 06:00:00,126.0,-3.0
2023/01/31 06:10:00,125.9,-3.1
2023/01/31 06:20:00,125.9,-3.0
2023/01/31 06:30:00,125.9,-3.0
2023/01/31 06:40:00,125.9,-3.1
2023/01/31 06:50:00,125.8,-2.9
2023/01/31 07:00:00,125.8,-2.9
2023/01/31 07:10:00,125.8,-2.9
2023/01/31 07:20:00,125.9,-2.8
2023/01/31 07:30:00,125.8,-2.7
2023/01/31 07:40:00,125.7,-2.5
2023/01/31 07:50:00,125.6,-2.5
2023/01/31 08:00:00,125.4,-2.4
2023/01/31 08:10:00,125.4,-2.1
2023/01/31 08:20:00,125.7,-2.1
2023/01/31 08:30:00,125.7,-2.2
2023/01/31 08:40:00,125.8,-2.1
2023/01/31 08:50:00,125.8,-1.9
2023/01/31 09:00:00,125.9,-1.6
2023/01/31 09:10:00,126.0,-1.6
2023/01/31 09:20:00,125.9,-1.3
2023/01/31 09:30:00,126.1,-1.2
2023/01/31 09:40:00,126.4,-1.2
2023/01/31 09:50:00,126.4,-0.2
2023/01/31 10:00:00,126.5, 0.7
2023/01/31 10:10:00,126.6, 2.1
2023/01/31 10:20:00,126.5, 2.5
2023/01/31 10:30:00,126.5, 2.6
2023/01/31 10:40:00,126.4, 3.4
2023/01/31 10:50:00,125.9, 1.5
2023/01/31 11:00:00,125.8, 0.0
2023/01/31 11:10:00,125.7, 0.0
2023/01/31 11:20:00,125.7, 0.1
2023/01/31 11:30:00,125.7, 0.8
2023/01/31 11:40:00,125.5, 0.8
2023/01/31 11:50:00,125.4, 0.9
2023/01/31 12:00:00,125.2, 2.5
2023/01/31 12:10:00,125.1, 0.7
2023/01/31 12:20:00,125.0, 0.6
2023/01/31 12:30:00,125.0, 0.6
2023/01/31 12:40:00,125.1, 0.6
2023/01/31 12:50:00,125.1, 0.7
2023/01/31 13:00:00,125.1, 0.8
2023/01/31 13:10:00,125.0, 0.9
2023/01/31 13:20:00,124.9, 1.0
2023/01/31 13:30:00,124.9, 1.2
2023/01/31 13:40:00,125.0, 1.5
2023/01/31 13:50:00,125.0, 1.4
2023/01/31 14:00:00,155.0, 1.8
2023/01/31 14:10:00,184.7, 7.2
2023/01/31 14:20:00,183.9, 9.5
2023/01/31 14:30:00,147.2, 5.3
2023/01/31 14:40:00,123.0, 4.1
2023/01/31 14:50:00,122.6, 2.6
2023/01/31 15:00:00,---, 5.6
2023/01/31 15:10:00,181.4, 9.8
2023/01/31 15:20:00,181.2, 9.2
2023/01/31 15:30:00,180.0, 9.6
2023/01/31 15:40:00,179.5, 9.5
2023/01/31 15:50:00,137.4, 6.0
2023/01/31 16:00:00,119.5, 3.3
2023/01/31 16:10:00,119.6, 1.7
2023/01/31 16:20:00,119.6, 1.5
2023/01/31 16:30:00,119.4, 0.7
2023/01/31 16:40:00,119.0, 0.5
2023/01/31 16:50:00,118.9, 0.2
2023/01/31 17:00:00,118.9,-0.2
2023/01/31 17:10:00,118.7,-0.4
2023/01/31 17:20:00,118.7,-0.8
2023/01/31 17:30:00,118.6,-0.7
2023/01/31 17:40:00,118.4,-0.6
2023/01/31 17:50:00,118.4,-0.6
2023/01/31 18:00:00,118.3,-0.9
2023/01/31 18:10:00,118.3,-1.0
2023/01/31 18:20:00,118.2,-1.1
2023/01/31 18:30:00,118.1,-1.2
2023/01/31 18:40:00,118.1,-1.5
2023/01/31 18:50:00,118.0,-1.3
2023/01/31 19:00:00,118.1,-1.2
2023/01/31 19:10:00,118.3,-1.7
2023/01/31 19:20:00,118.2,-1.9
2023/01/31 19:30:00,118.1,-1.7
2023/01/31 19:40:00,118.0,-1.8
2023/01/31 19:50:00,117.8,-1.5
2023/01/31 20:00:00,117.7,-1.4
2023/01/31 20:10:00,117.7,-1.2
2023/01/31 20:20:00,117.6,-1.4
2023/01/31 20:30:00,117.6,-1.5
2023/01/31 20:40:00,117.5,-1.4
2023/01/31 20:50:00,117.5,-1.7
2023/01/31 21:00:00,117.6,-1.8
2023/01/31 21:10:00,117.6,-1.9
2023/01/31 21:20:00,117.7,-2.1
2023/01/31 21:30:00,117.6,-2.1
2023/01/31 21:40:00,117.6,-2.2
2023/01/31 21:50:00,117.7,-2.3
2023/01/31 22:00:00,117.8,-2.2
2023/01/31 22:10:00,117.7,-2.4
2023/01/31 22:20:00,117.7,-2.4
2023/01/31 22:30:00,117.6,-2.4
2023/01/31 22:40:00,117.5,-2.6
2023/01/31 22:50:00,117.4,-2.4
2023/01/31 23:00:00,117.4,-2.8
2023/01/31 23:10:00,117.4,-2.8
2023/01/31 23:20:00,117.4,-2.9
2023/01/31 23:30:00,117.4,-2.6
2023/01/31 23:40:00,117.2,-2.8
2023/01/31 23:50:00,117.2,-3.0
